Showing default

ESSAIM-4, 28497

Orbit data source: Space-Track

ESSAIM-4, 28497 is a French payload satellite in SSO that was launched on Sat, 18 Dec 2004 UTC via an ARIANE 5G+ launch vehicle from the French Guiana (FRGUI). Payload-class satellites include a variety of spacecraft equipped with specific instruments for various scientific and technological missions. These include communications satellites like Starlink; space stations such as the ISS; scientific satellites like the Hubble; Earth observation satellites from companies like Planet Labs, Umbra, and HawkEye 360; GPS; miniature CubeSats for education and research; and military/defense satellites.

Loading next visibility...
Identifier
28497, 2004-049F
Orbit
SSO
Country
Flag of FRFR
Related business
Manufacturer
EADS/Bremen
Mission
Defense Sigint
Bus & Motor
MYRIADE, Unknown motor
Mass
119 kg wet, 114 kg dry
Launch date (UTC)
2004-12-18 (22 years ago)
Launch vehicle
ARIANE 5G+
Launch site
French Guiana (FRGUI)
Object type
Payload
Rocket body
Debris
Shape & HBR
Box + 1 Pan, 2.5 m
Radar Cross Section
0.607 m², Large (>1 m²)

Expand to show TLE details & history
Last TLE update: 2 days ago

TLE from 2 days ago
0 ESSAIM-4
1 28497U 04049F   26171.44254369  .00000887  00000-0  10283-3 0  9991
2 28497  98.2527  58.8597 0000725  51.0787 309.0493 14.88131228159943
Epoch: 2026-06-20T10:37Z
TLE epoch observation values (Epoch: 2026-06-20T10:37:15.774Z)
Latitude
-0.00003°
Longitude
-9.11312°
Altitude
606.478 km
Speed
7.556 km/s
True Right ascension
03h 55m 26s
True Declination
0° 00' 00"
Sunlit
Object was in daylight at epoch
Visualization orbit readout
Latitude
Unknown
Longitude
Unknown
Altitude
Unknown
Speed
Unknown
Apparent Right ascension
Unknown
Apparent Declination
Unknown
Sunlit
N/A
Visualization observer readout
Local Sidereal Time
00:39:36
Azimuth
Unknown
Elevation
Unknown
Doppler factor
Unknown
Orbital elements
Apogee altitude
601.327 km
Perigee altitude
600.315 km
Semi-major axis
6,978.958 km
Eccentricity
0.00007
Inclination
98.2527°
RAAN
58.8597°
Arg. of periapsis
51.0787°
True anomaly
309.04285°
Mean anomaly
309.0493°
Eccentric anomaly
309.04607°
Mean motion
3.72269 °/min
Orbital period
96.7 mins
BSTAR
0.00010283
Loading maneuver chart data...
Computing Atmospheric mass density...
Loading historical data...
Loading historical data...
Loading historical data...
Loading historical data...
Loading historical data...
Loading historical data...
Loading historical data...

Documentation

Showing up to 5 results
|